Regional Weather Roundup
Issued by NWS Little Rock, AR

Home | Current Version | Previous Version | Text Only | Print | Product List | Glossary On
Versions: 1 2 3 4 5 6 7 8 9 10 11 12 13 14 15 16 17 18 19 20 21 22 23 24 25 26 27 28 29 30 31 32 33 34 35 36 37 38 39 40 41 42 43 44 45 46 47 48 49
000
ASUS44 KLZK 300205
RWRLZK

WEATHER ROUNDUP FOR ARKANSAS
NATIONAL WEATHER SERVICE LITTLE ROCK AR
800 PM CST THU JAN 29 2015

NOTE: "FAIR" INDICATES FEW OR NO CLOUDS BELOW 12,000 FEET WITH NO
SIGNIFICANT WEATHER AND/OR OBSTRUCTIONS TO VISIBILITY.

ARZ001-003-010-029-300300-
NORTHWEST ARKANSAS

CITY           SKY/WX    TMP DP  RH WIND       PRES   REMARKS
FAYETTEVILLE   CLEAR     37  28  70 N6        30.46R
FORT SMITH     CLEAR     44  30  57 N7        30.46R
HARRISON       FAIR      36  28  73 NW7       30.43R
BENTONVILLE    CLEAR     39  27  60 N6        30.46R
ROGERS         CLEAR     38  27  64 N5        30.46R
SILOAM SPGS    CLEAR     36  23  60 N7        30.47R
HIGHFILL       CLEAR     36  27  69 N7        30.45R
SPRINGDALE     CLEAR     37  28  70 N7        30.47R
$$

ARZ004-005-016-300300-
NORTH CENTRAL ARKANSAS

CITY           SKY/WX    TMP DP  RH WIND       PRES   REMARKS
BATESVILLE     CLOUDY    43  28  56 NW8       30.42R
FLIPPIN        CLEAR     39  25  56 NW6       30.43S
MTN HOME       CLEAR     39  27  62 N3        30.41R
$$

ARZ040-041-300300-
WEST CENTRAL ARKANSAS

CITY           SKY/WX    TMP DP  RH WIND       PRES   REMARKS
MENA           MOCLDY    46  32  57 N8        30.42R
MOUNT IDA      CLOUDY    46  31  55 CALM      30.39R
$$

ARZ009-017-025-026-028-300300-
NORTHEAST ARKANSAS

CITY           SKY/WX    TMP DP  RH WIND       PRES   REMARKS
CORNING        CLOUDY    43  32  65 NW15      30.40R
JONESBORO      CLOUDY    43  30  60 N8G20     30.39R
NEWPORT        CLOUDY    43  30  60 N16       30.42R
WALNUT RIDGE   CLOUDY    43  27  52 NW13      30.40R
BLYTHEVILLE    CLOUDY    43  33  68 N17       30.38R
$$

ARZ022-023-033-042-044-300300-
CENTRAL ARKANSAS

CITY           SKY/WX    TMP DP  RH WIND       PRES   REMARKS
LITTLE ROCK    MOCLDY    45  29  53 N15G29    30.42R
N LITTLE ROCK  MOCLDY    43  33  68 N9G17     30.42R
JACKSONVILLE   MOCLDY    44  30  57 NW9G17    30.42R
SEARCY         MOCLDY    44  30  57 N15G25    30.43R
HOT SPRINGS    CLOUDY    47  31  53 N16G23    30.41R
RUSSELLVILLE   CLEAR     42  30  62 NW3       30.44R
CLINTON        FAIR      43  28  56 NW5       30.45R
$$

ARZ036-300300-
EAST ARKANSAS

CITY           SKY/WX    TMP DP  RH WIND       PRES   REMARKS
WEST MEMPHIS   CLOUDY    45  34  65 N8        30.37R
$$

ARZ050-053-066-070-073-300300-
SOUTHWEST ARKANSAS

CITY           SKY/WX    TMP DP  RH WIND       PRES   REMARKS
ARKADELPHIA    FAIR      50  36  58 N8        30.41R
CAMDEN         PTCLDY    52  36  54 MISG      30.36R
TEXARKANA      MOCLDY    50  35  56 N12       30.39R
EL DORADO      MOCLDY    54  38  54 N12       30.34R
DE QUEEN       MOCLDY    47  33  58 CALM      30.40R
$$

ARZ056-057-069-300300-
SOUTHEAST ARKANSAS

CITY           SKY/WX    TMP DP  RH WIND       PRES   REMARKS
PINE BLUFF     CLOUDY    45  33  63 N20G28    30.40R
STUTTGART      CLOUDY    45  34  65 N13       30.40R
MONTICELLO     MOCLDY    50  37  61 N8G24     30.36R

$$




USA.gov is the U.S. government's official web portal to all federal, state and local government web resources and services.